Skip Page Navigation
NASA JPL Caltech
NASA Logo - Jet Propulsion Laboratory + View the NASA Portal
+ Center for Near-Earth Object Studies
JPL Home Earth Solar System Stars & Galaxies Technology
JPL Solar System Dynamics
BODIES ORBITS EPHEMERIDES TOOLS PHYSICAL DATA DISCOVERY FAQ SITE MAP
IMPORTANT: The SSD Announcement email list is now available. Major changes are coming in the near future, including possible hostname and/or URL changes. To be notified of such changes, subscribe to this email list.

Please visit this page for more details.


JPL Small-Body Database Browser
Search: [ help ]  
185325 Anupabhagwat (2006 VE14)
Classification: Main-belt Asteroid          SPK-ID: 2185325
Ephemeris | Orbit Diagram | Orbital Elements | Mission Design | Physical Parameters | Discovery Circumstances | Close-Approach Data ]

[ show orbit diagram ]
Orbital Elements at Epoch 2459000.5 (2020-May-31.0) TDB
Reference: JPL 15 (heliocentric ecliptic J2000)
 Element Value Uncertainty (1-sigma)   Units 
e .03386888284298889 5.0107e-08  
a 3.096269159290381 4.0228e-08 au
q 2.991401981884015 1.6284e-07 au
i 8.452594438053817 6.7949e-06 deg
node 323.0160807228531 3.7559e-05 deg
peri 287.0220638668693 0.00011668 deg
M 333.7177112874504 0.00011464 deg
tp 2459145.783792531065
(2020-Oct-23.28379253)
0.00063475 TDB
period 1990.015629278485
5.45
3.8783e-05
1.062e-07
d
yr
n .1809031018166045 3.5256e-09 deg/d
Q 3.201136336696746 4.1591e-08 au
  Orbit Determination Parameters
   # obs. used (total)      324  
   data-arc span      5818 days (15.93 yr)  
   first obs. used      2003-03-06  
   last obs. used      2019-02-08  
   planetary ephem.      DE431  
   SB-pert. ephem.      SB431-N16  
   condition code      0  
   norm. resid. RMS      .64977  
   source      ORB  
   producer      Otto Matic  
   solution date      2019-Jul-14 08:30:21  

Additional Information
 Earth MOID = 1.99073 au 
 Jupiter MOID = 1.88071 au 
 T_jup = 3.206 
[ show covariance matrix ]

Ephemeris | Orbit Diagram | Orbital Elements | Mission Design | Physical Parameters | Discovery Circumstances | Close-Approach Data ]

Physical Parameter Table
Parameter Symbol Value Units Sigma Reference Notes
absolute magnitude H 15.3   n/a MPO341602  
diameter diameter 4.726 km 0.272 urn:nasa:pds:neowise_diameters_albedos::2.0[mainbelt] (http://adsabs.harvard.edu/abs/2011ApJ...741...68M)  
geometric albedo albedo 0.066   0.009 urn:nasa:pds:neowise_diameters_albedos::2.0[mainbelt] (http://adsabs.harvard.edu/abs/2011ApJ...741...68M)  

185325 Anupabhagwat           Discovered 2006 Nov. 14 by V. S. Casulli at Vallemare Borbona.
Anupama Bhagwat (b. 1974) is an Indian sitar musician and composer of Hindustani classical music.
NOTE: some special characters may not display properly (any characters within {} are an attempt to place the proper accent above a character)
Reference: MPC batch dated 2016-04-22Last Updated: 2016-04-25

[ show close-approach data ]
Alternate Designations
 2006 VE14 = 2005 UR394 
Ephemeris | Orbit Diagram | Orbital Elements | Mission Design | Physical Parameters | Discovery Circumstances | Close-Approach Data ]
ABOUT SSD CREDITS/AWARDS PRIVACY/COPYRIGHT GLOSSARY LINKS
FirstGov 2020-Feb-19 16:48 UT
(server date/time)  
NASA Home Page
Site Manager:   Ryan S. Park
Webmaster  Alan B. Chamberlin